• In Kazakhstan
  • List of Countries
  • For 7 days
  • Water Temperature
  • Satellite Maps
  • Weather Map
  • News
  • Weather Widgets
  • user-avatar
    Login

    Hourly Weather Ashtarak

    Today, 17 January, Thursday

    Time Temperature Precipitation Wind Pressure Humidity
    00:00 -2°C° 0 mm 2 mps 647 mmHg 64%
    01:00 -2°C° 0.1 mm 2 mps 647 mmHg 64%
    02:00 -2°C° 0.1 mm 2 mps 647 mmHg 65%
    03:00 -2°C° 0 mm 2 mps 646 mmHg 57%
    04:00 -2°C° 0.2 mm 2 mps 646 mmHg 59%
    05:00 0°C° 0.2 mm 1 mps 646 mmHg 61%
    06:00 0°C° 0.2 mm 1 mps 646 mmHg 63%
    07:00 0°C° 0.3 mm 1 mps 646 mmHg 64%
    08:00 +1°C° 0.3 mm 1 mps 647 mmHg 64%
    09:00 +1°C° 0.3 mm 1 mps 647 mmHg 64%
    10:00 +2°C° 0.2 mm 1 mps 648 mmHg 62%
    11:00 +3°C° 0.2 mm 1 mps 648 mmHg 61%
    12:00 +3°C° 0.2 mm 1 mps 648 mmHg 60%
    13:00 +2°C° 0.2 mm 2 mps 648 mmHg 62%
    14:00 +2°C° 0.2 mm 2 mps 649 mmHg 63%
    15:00 +1°C° 0.2 mm 3 mps 649 mmHg 65%
    16:00 0°C° 0.2 mm 3 mps 650 mmHg 66%
    17:00 -1°C° 0.2 mm 3 mps 650 mmHg 68%
    18:00 -1°C° 0.2 mm 3 mps 651 mmHg 69%
    19:00 -2°C° 0.1 mm 3 mps 652 mmHg 69%
    20:00 -4°C° 0.1 mm 3 mps 652 mmHg 68%
    21:00 -4°C° 0.1 mm 3 mps 653 mmHg 68%
    22:00 -5°C° 0 mm 3 mps 653 mmHg 66%
    23:00 -4°C° 0 mm 2 mps 653 mmHg 65%

    Tomorrow, 18 January, Friday

    Time Temperature Precipitation Wind Pressure Humidity
    00:00 -5°C° 0 mm 2 mps 654 mmHg 64%
    01:00 -5°C° 0 mm 2 mps 654 mmHg 63%
    02:00 -5°C° 0 mm 2 mps 654 mmHg 62%
    03:00 -6°C° 0 mm 2 mps 655 mmHg 61%
    04:00 -6°C° 0 mm 2 mps 655 mmHg 61%
    05:00 -4°C° 0 mm 1 mps 655 mmHg 62%
    06:00 -4°C° 0 mm 1 mps 656 mmHg 62%
    07:00 -3°C° 0 mm 1 mps 656 mmHg 60%
    08:00 -3°C° 0 mm 1 mps 657 mmHg 59%
    09:00 -2°C° 0 mm 1 mps 658 mmHg 57%
    10:00 -2°C° 0 mm 1 mps 658 mmHg 56%
    11:00 -1°C° 0 mm 1 mps 658 mmHg 55%
    12:00 0°C° 0 mm 1 mps 657 mmHg 53%
    13:00 0°C° 0 mm 1 mps 657 mmHg 53%
    14:00 +1°C° 0 mm 1 mps 657 mmHg 53%
    15:00 +1°C° 0 mm 1 mps 657 mmHg 54%
    16:00 -1°C° 0 mm 1 mps 657 mmHg 56%
    17:00 -2°C° 0 mm 1 mps 657 mmHg 58%
    18:00 -5°C° 0 mm 0 mps 658 mmHg 60%
    19:00 -5°C° 0 mm 0 mps 658 mmHg 60%
    20:00 -4°C° 0 mm 1 mps 658 mmHg 59%
    21:00 -4°C° 0 mm 1 mps 659 mmHg 58%
    22:00 -6°C° 0 mm 1 mps 659 mmHg 58%
    23:00 -6°C° 0 mm 1 mps 659 mmHg 58%

    Day after tomorrow, 19 January, Saturday

    Time Temperature Precipitation Wind Pressure Humidity
    00:00 -6°C° 0 mm 1 mps 659 mmHg 58%
    01:00 -6°C° 0 mm 1 mps 659 mmHg 58%
    02:00 -6°C° 0 mm 1 mps 659 mmHg 58%
    03:00 -6°C° 0 mm 1 mps 659 mmHg 58%
    04:00 -7°C° 0 mm 1 mps 659 mmHg 58%
    05:00 -7°C° 0 mm 1 mps 659 mmHg 58%
    06:00 -7°C° 0 mm 1 mps 658 mmHg 57%
    07:00 -6°C° 0 mm 1 mps 659 mmHg 55%
    08:00 -4°C° 0 mm 1 mps 659 mmHg 53%
    09:00 -3°C° 0 mm 1 mps 659 mmHg 50%
    10:00 -2°C° 0 mm 1 mps 659 mmHg 49%
    11:00 -1°C° 0 mm 1 mps 658 mmHg 47%
    12:00 0°C° 0 mm 1 mps 658 mmHg 45%
    13:00 +1°C° 0 mm 1 mps 658 mmHg 45%
    14:00 +1°C° 0 mm 1 mps 657 mmHg 44%
    15:00 +1°C° 0 mm 1 mps 657 mmHg 44%
    16:00 0°C° 0 mm 1 mps 657 mmHg 44%
    17:00 -2°C° 0 mm 1 mps 657 mmHg 43%
    18:00 -3°C° 0 mm 1 mps 658 mmHg 43%
    19:00 -4°C° 0 mm 1 mps 658 mmHg 43%
    20:00 -4°C° 0 mm 1 mps 658 mmHg 43%
    21:00 -4°C° 0 mm 1 mps 658 mmHg 42%
    22:00 -4°C° 0 mm 1 mps 658 mmHg 42%
    23:00 -6°C° 0 mm 1 mps 658 mmHg 42%

    20 January, Sunday

    Time Temperature Precipitation Wind Pressure Humidity
    00:00 -6°C° 0 mm 1 mps 658 mmHg 43%
    01:00 -6°C° 0 mm 1 mps 658 mmHg 42%
    02:00 -6°C° 0 mm 1 mps 658 mmHg 41%
    03:00 -6°C° 0 mm 1 mps 658 mmHg 41%
    04:00 -6°C° 0 mm 1 mps 658 mmHg 41%
    05:00 -6°C° 0 mm 1 mps 658 mmHg 41%
    06:00 -4°C° 0 mm 1 mps 658 mmHg 41%
    07:00 -3°C° 0 mm 1 mps 659 mmHg 41%
    08:00 -2°C° 0 mm 1 mps 659 mmHg 42%
    09:00 -2°C° 0 mm 1 mps 659 mmHg 42%
    10:00 -1°C° 0 mm 1 mps 659 mmHg 42%
    11:00 0°C° 0 mm 1 mps 659 mmHg 41%
    12:00 +1°C° 0 mm 1 mps 658 mmHg 41%
    13:00 +1°C° 0 mm 1 mps 658 mmHg 41%
    14:00 +2°C° 0 mm 1 mps 658 mmHg 41%
    15:00 +2°C° 0 mm 1 mps 658 mmHg 42%
    16:00 0°C° 0 mm 1 mps 658 mmHg 42%
    17:00 -1°C° 0 mm 1 mps 658 mmHg 43%
    18:00 -2°C° 0 mm 1 mps 658 mmHg 44%
    19:00 -2°C° 0 mm 1 mps 658 mmHg 44%
    20:00 -3°C° 0 mm 1 mps 658 mmHg 43%
    21:00 -3°C° 0 mm 1 mps 659 mmHg 43%
    22:00 -3°C° 0 mm 1 mps 659 mmHg 43%
    23:00 -3°C° 0 mm 1 mps 659 mmHg 44%

    21 January, Monday

    Time Temperature Precipitation Wind Pressure Humidity
    00:00 -4°C° 0 mm 1 mps 659 mmHg 44%
    01:00 -4°C° 0 mm 1 mps 659 mmHg 44%
    02:00 -4°C° 0 mm 1 mps 659 mmHg 45%
    03:00 -4°C° 0 mm 1 mps 659 mmHg 45%
    04:00 -6°C° 0 mm 1 mps 659 mmHg 46%
    05:00 -6°C° 0 mm 1 mps 659 mmHg 46%
    06:00 -6°C° 0 mm 1 mps 658 mmHg 46%
    07:00 -4°C° 0 mm 1 mps 659 mmHg 46%
    08:00 -3°C° 0 mm 1 mps 659 mmHg 46%
    09:00 -3°C° 0 mm 1 mps 659 mmHg 45%
    10:00 -1°C° 0 mm 1 mps 659 mmHg 44%
    11:00 0°C° 0 mm 1 mps 659 mmHg 43%
    12:00 +1°C° 0 mm 1 mps 658 mmHg 42%
    13:00 +1°C° 0 mm 1 mps 658 mmHg 42%
    14:00 +1°C° 0 mm 1 mps 658 mmHg 42%
    15:00 +1°C° 0 mm 1 mps 657 mmHg 42%
    16:00 -1°C° 0 mm 1 mps 657 mmHg 42%
    17:00 -2°C° 0 mm 1 mps 657 mmHg 42%
    18:00 -3°C° 0 mm 1 mps 657 mmHg 42%
    19:00 -4°C° 0 mm 1 mps 658 mmHg 41%
    20:00 -4°C° 0 mm 1 mps 658 mmHg 40%
    21:00 -4°C° 0 mm 1 mps 658 mmHg 39%
    22:00 -4°C° 0 mm 1 mps 658 mmHg 40%
    23:00 -6°C° 0 mm 1 mps 658 mmHg 41%

    22 January, Tuesday

    Time Temperature Precipitation Wind Pressure Humidity
    00:00 -6°C° 0 mm 1 mps 658 mmHg 42%
    01:00 -6°C° 0 mm 1 mps 658 mmHg 43%
    02:00 -6°C° 0 mm 1 mps 658 mmHg 44%
    03:00 -6°C° 0 mm 1 mps 658 mmHg 44%
    04:00 -6°C° 0 mm 1 mps 657 mmHg 45%
    05:00 -6°C° 0 mm 1 mps 657 mmHg 45%
    06:00 -6°C° 0 mm 1 mps 657 mmHg 45%
    07:00 -6°C° 0 mm 1 mps 658 mmHg 45%
    08:00 -4°C° 0 mm 1 mps 658 mmHg 45%
    09:00 -3°C° 0 mm 1 mps 658 mmHg 45%
    10:00 -1°C° 0 mm 1 mps 658 mmHg 45%
    11:00 0°C° 0 mm 1 mps 657 mmHg 44%
    12:00 -1°C° 0 mm 2 mps 657 mmHg 43%
    13:00 -1°C° 0 mm 2 mps 657 mmHg 44%
    14:00 -1°C° 0 mm 2 mps 657 mmHg 44%
    15:00 +1°C° 0 mm 2 mps 656 mmHg 44%
    16:00 0°C° 0 mm 1 mps 656 mmHg 45%
    17:00 -1°C° 0 mm 1 mps 657 mmHg 45%
    18:00 -3°C° 0 mm 1 mps 657 mmHg 46%
    19:00 -3°C° 0 mm 1 mps 657 mmHg 46%
    20:00 -3°C° 0 mm 1 mps 657 mmHg 47%
    21:00 -3°C° 0 mm 1 mps 657 mmHg 47%
    22:00 -3°C° 0 mm 1 mps 657 mmHg 48%
    23:00 -4°C° 0 mm 1 mps 658 mmHg 49%
    Show more